Hourly Data Report for October 09, 2013

All times are specified in Local Standard Time (LST). Add 1 hour to adjust for Daylight Saving Time where and when it is observed.

PANGNIRTUNG
NUNAVUT

66°08'36.300" N
65°42'40.500" W
22.60 m
2403049
71826
WXP

Download Data

Hourly Data (October 2013)
Hourly Data Report for October 9, 2013
Temp Definition
°C
Dew Point Temp Definition
°C
Rel Hum Definition
%
Wind Dir Definition
10's deg

Wind Spd Definition
km/h
Visibility Definition
km
Stn Press Definition
kPa
Hmdx Definition


Wind Chill Definition


Weather Definition


TIME
00:00 1.0 -4.6 66 8 32   98.22     LegendNANA
01:00 2.1 -5.0 59 7 19   98.29     LegendNANA
02:00 2.3 -5.2 58 7 15   98.43     LegendNANA
03:00 1.7 -4.7 62 7 15   98.51     LegendNANA
04:00 1.4 -4.6 64 7 22   98.61     LegendNANA
05:00 1.9 -6.1 55 7 19   98.70     LegendNANA
06:00 1.5 -6.2 57 8 24   98.76     LegendNANA
07:00 1.8 -6.5 54 7 22   98.80     LegendNANA
08:00 1.8 -6.4 54 8 20   98.85     LegendNANA
09:00 2.1 -6.4 53 6 19   98.91     LegendNANA
10:00 2.1 -6.6 53 7 19   98.99     LegendNANA
11:00 2.0 -6.7 52 7 9   99.06     LegendNANA
12:00 1.8 -6.1 56 9 13   99.16     LegendNANA
13:00 1.5 -4.2 66 13 22   99.24     LegendNANA
14:00 1.6 -5.5 59 11 13   99.34     LegendNANA
15:00 1.9 -6.9 52 13 6   99.43     LegendNANA
16:00 0.7 -3.9 71 23 11   99.53     LegendNANA
17:00 0.7 -5.3 64 35 2   99.63     LegendNANA
18:00 1.1 -6.4 57 6 6   99.73     LegendNANA
19:00 0.8 -6.3 59 13 11   99.82     LegendNANA
20:00 0.8 -7.0 56 13 7   99.89     LegendNANA
21:00 -0.3 -7.9 56 10 7   99.97   -3 LegendNANA
22:00 0.0 -8.0 55 10 13   100.03   -4 LegendNANA
23:00 -0.4 -8.3 55 13 9   100.11   -4 LegendNANA

Notes on Data Quality.

Legend

  • E = Estimated
  • M = Missing
  • NA = Not Available
  • ‡ = Partner data that is not subject to review by the National Climate Archives
Date modified: